weather.gov     
National Weather Service

Regional Weather Roundup
NWS Homepage
This page is being discontinued on March 12, 2014.
The same data is available at this site. Please update your bookmarks.
Thank you, and we apologize for the inconvenience.
Please send an email to SR-SRH.Webmaster@noaa.gov with any concerns.


Current Version
Previous Version:    01  02  03  04  05  06  07  08  09  10  11  12  13  14  15  16  17  18  19  20  21  22  23  24  25  26  
[Printable]
672
ASUS42 KTBW 021710
RWRFL
FLORIDA REGIONAL WEATHER ROUNDUP
NATIONAL WEATHER SERVICE TAMPA BAY RUSKIN FL
100 PM EDT TUE SEP 02 2014

NOTE: "FAIR" INDICATES FEW OR NO CLOUDS BELOW 12,000 FEET WITH NO
SIGNIFICANT WEATHER AND/OR OBSTRUCTIONS TO VISIBILITY.


FLZ001>010-012>015-112-114-115-021800-
PANHANDLE FLORIDA

CITY           SKY/WX    TMP DP  RH WIND       PRES   REMARKS
PENSACOLA      MOSUNNY   88  73  61 S10       30.08F HX  95
PENSACOLA NAS  MOSUNNY   90  75  61 S12G17    30.08F HX 100
MILTON NAS     MOSUNNY   89  72  56 VRB5      30.08F HX  96
CRESTVIEW      CLOUDY    92  73  53 SE8       30.10F HX 100
DUKE FIELD     PTSUNNY   90  73  57 SE6       30.09F HX  98
VALPARAISO     PTSUNNY   90  75  61 S9        30.09F HX  99
MARY ESTHER    MOSUNNY   90  71  53 SE9       30.08F HX  96
TRI COUNTY     HVY RAIN  93  71  48 VRB3      30.09F HX 100
PANAMA CITY    FAIR      90  70  51 NW6       30.07F HX  95
TYNDALL AFB    MOSUNNY   90  76  62 VRB2      30.09F HX 101
APALACHICOLA   MOSUNNY   91  75  59 SE13      30.08F HX 101

STATION/POSITION SKY/WX   TEMP    WIND        PRES    WAVE   SWELL
                          AIR SEA DIR/SP/G            HT/PER HT/PER
                          (F)     (DEG/KT/KT) (MB)    (FT/S) (FT/S)
30.1N   87.6W              85 86  150/  8/ 10 1018.9F   3/ 7   2/ 7
29.2N   88.2W              84 86  120/  4/  6 1019.0F
28.8N   86.0W              84 87   90/  6/  8 1019.1F   3/ 6   2/ 6
PANAMA CITY BEAC           86 87  190/  7/  8 1018.8S
CAPE SAN BLAS    NOT AVBL
TOWER C                    83      70/  9/  9 1019.0F
28.5N   84.5W              85 87   50/  6/  8 1019.1F   2/ 8   2/ 8

$$
FLZ011-016>038-118-127-128-134-139-239-021800-
NORTH FLORIDA

CITY           SKY/WX    TMP DP  RH WIND       PRES   REMARKS
MARIANNA       PTSUNNY   89  73  59 CALM      30.08F HX  97
TALLAHASSEE    PTSUNNY   93  69  45 VRB3      30.08F HX  98
PERRY          MOSUNNY   90  72  55 CALM      30.09F HX  96
CROSS CITY       N/A     92  74  55 VRB5      30.08F HX 101
LAKE CITY      CLOUDY    88  73  62 CALM      30.09F HX  96
GAINESVILLE    PTSUNNY   88  73  61 E5        30.09F HX  95
MAYPORT NAS    PTSUNNY   90  77  65 SE10      30.09S HX 103
JACKSONVILLE   MOSUNNY   90  73  57 NW7       30.07F HX  98
JAX NAS        MOSUNNY   86  73  65 SE9       30.09F
JAX CRAIG      PTSUNNY   90  74  59 CALM      30.08F HX  99
JAX CECIL      PTSUNNY   90  73  58 VRB3      30.09F HX  98
FERNANDINA BEA FAIR      90  75  62 SE12      30.08S HX 100
ST AUGUSTINE   MOSUNNY   89  76  65 E14       30.10S HX 100

STATION/POSITION SKY/WX   TEMP    WIND        PRES    WAVE   SWELL
                          AIR SEA DIR/SP/G            HT/PER HT/PER
                          (F)     (DEG/KT/KT) (MB)    (FT/S) (FT/S)
SHELL POINT                86      30/  2/  4   N/A
KEATON BEACH               85     260/  5/  7 1018.9F
CEDAR KEY                  83     140/  4/  5 1019.8F
FERNANDINA                 91 87   CALM  /  2 1018.4S
30.7N   81.3W                 85                N/A     2/ 9
MAYPORT                    87 87  100/  7/  9   N/A
31.4N   80.9W              84 85  190/  8/ 10 1018.9F   2/ 9   2/ 9
ST AUGUSTINE               83     120/ 10/ 10 1020.1S

$$
FLZ040-043>046-052-053-057-058-063-144-021800-
INTERIOR CENTRAL FLORIDA

CITY           SKY/WX    TMP DP  RH WIND       PRES   REMARKS
OCALA          MOSUNNY   88  72  58 CALM      30.09F
LEESBURG       SUNNY     91  69  48 SE8       30.10F HX  96
SANFORD        MOSUNNY   90  70  51 SE6       30.09F HX  95
ORLANDO EXEC   MOSUNNY   92  69  47 VRB5      30.09F HX  97
ORLANDO INTL   PTSUNNY   91  69  48 NE3       30.09F HX  96
KISSIMMEE      PTSUNNY   90  72  55 SE6       30.10F HX  96
WINTER HAVEN   MOSUNNY   90  68  48 NE7       30.10F
LAKELAND       MOSUNNY   90  68  48 NE8       30.09F
OKEECHOBEE     PTSUNNY   88  72  58 MISG      30.08F

$$
FLZ041-047-054-059-064-141-147-021800-
EAST CENTRAL FLORIDA

CITY           SKY/WX    TMP DP  RH WIND       PRES   REMARKS
ORMOND BEACH   MOSUNNY  N/A N/A N/A CALM      30.10F
DAYTONA BEACH  MOSUNNY   89  72  56 E8        30.10F HX  96
DELAND         PTSUNNY   86  72  62 NE5       30.10F
NEW SMYRNA BEA MOSUNNY   88  72  58 E8        30.10F
JFK SPACE CTR  PTSUNNY   87  75  66 NE9       30.09F HX  96
TITUSVILLE     PTSUNNY   88  73  62 E8        30.10F HX  96
CAPE CANAVERAL SUNNY     87  73  63 VRB5      30.09S HX  95
PATRICK AFB    SUNNY     87  74  66 E6        30.09F HX  95
MELBOURNE      PTSUNNY   88  73  61 NE7       30.09F HX  95
VERO BEACH     PTSUNNY   87  72  60 SE9       30.09F
FT PIERCE      PTSUNNY   88  71  57 E8        30.08F
STUART         PTSUNNY   88  73  62 E14       30.09F HX  96

STATION/POSITION SKY/WX   TEMP    WIND        PRES    WAVE   SWELL
                          AIR SEA DIR/SP/G            HT/PER HT/PER
                          (F)     (DEG/KT/KT) (MB)    (FT/S) (FT/S)
28.5N   80.2W              84 87  110/  4/  6 1019.7F
28.9N   78.5W              83 85  120/  8/ 10 1019.6S   3/12   3/12
TRIDENT PIER               88 86   80/  7/ 12 1018.8F
28.4N   80.5W                 84                N/A     2/ 7
27.6N   80.2W                 87                N/A     2/10

$$
FLZ050-056-061-142-242-148-248-149-249-151-251-155-255-
160-260-021800-
WEST CENTRAL FLORIDA

CITY           SKY/WX    TMP DP  RH WIND       PRES   REMARKS
CRYSTAL RIVER  FAIR      90  72  55 N6        30.08F HX  96
INVERNESS      FAIR      90  70  51 CALM      30.09F HX  95
BROOKSVILLE    MOSUNNY   91  73  55 N3        30.09F HX  99
ZEPHYRHILLS    FAIR      91  64  40 NE6       30.10S
CLEARWATER     MOSUNNY   90  75  61 N5        30.08F HX 100
TAMPA INTL     PTSUNNY   87  75  67 SW8       30.09F HX  96
TAMPA EXEC     PTSUNNY   90  72  55 NE5       30.09F HX  96
PLANT CITY     MOSUNNY   91  70  49 N7        30.10F HX  97
MACDILL AFB    MOSUNNY   91  79  66 W6        30.08F HX 108
ST PETERSBURG  SUNNY     89  73  59 E3        30.07F HX  97
SARASOTA       CLOUDY    91  74  57 W8        30.06F HX 100
VENICE           N/A    N/A N/A N/A MISG        N/A

STATION/POSITION SKY/WX   TEMP    WIND        PRES    WAVE   SWELL
                          AIR SEA DIR/SP/G            HT/PER HT/PER
                          (F)     (DEG/KT/KT) (MB)    (FT/S) (FT/S)
CEDAR KEY                  83     140/  4/  5 1019.8F
28.5N   84.5W              85 87   50/  6/  8 1019.1F   2/ 8   2/ 8
27.3N   84.3W                 87                N/A     2/ 8
CLEARWATER BEACH           86 88  330/  7/  8 1018.6S
MIDDLE TAMPA BAY           85      10/  5/  7 1018.9F
VENICE                     84 88  240/  6/  7 1018.1F

$$
FLZ066-069-070-075>078-162-262-165-265-021800-
SOUTHWEST FLORIDA AND KEYS

CITY           SKY/WX    TMP DP  RH WIND       PRES   REMARKS
PUNTA GORDA    SUNNY     91  71  51 VRB3      30.09F HX  97
FT MYERS       MOSUNNY   91  71  51 VRB7      30.06F HX  97
SOUTHWEST INTL MOSUNNY   89  70  53 VRB5      30.07F
NAPLES         PTSUNNY   89  73  59 VRB6      30.05F HX  97
MARCO ISLAND   PTSUNNY   90  73  58 N6        30.05F HX  98
MARATHON       MOSUNNY   90  77  65 VRB5      30.04F HX 103
KEY WEST NAS   MOSUNNY   88  73  61 E8        30.05S HX  95
KEY WEST INTL  SUNNY     88  74  63 SE9       30.05S HX  96

STATION/POSITION SKY/WX   TEMP    WIND        PRES    WAVE   SWELL
                          AIR SEA DIR/SP/G            HT/PER HT/PER
                          (F)     (DEG/KT/KT) (MB)    (FT/S) (FT/S)
VENICE                     84 88  240/  6/  7 1018.1F
NAPLES                     89     260/  4/  5 1018.3F
DRY TORTUGAS               83     140/  6/  7 1017.7F
NW FL BAY                  86     130/ 10/ 12 1017.8R
SAND KEY                   84     160/  9/ 11 1017.4F
SOMBRERO KEY               85     110/  9/ 11 1018.1F
LONG KEY                   85 86  110/ 10/ 13 1018.4F
MOLASSES REEF              84 87   90/  9/ 10 1017.6F

$$
FLZ067-068-071>074-168-172>174-021800-
SOUTHEAST FLORIDA

CITY           SKY/WX    TMP DP  RH WIND       PRES   REMARKS
W PALM BEACH   MOSUNNY   88  72  58 SE13      30.06F
FT LAUDER-EXEC MOSUNNY   88  73  61 SE10      30.06S HX  95
FT LAUDERDALE  MOSUNNY   89  73  59 SE12      30.06F HX  97
POMPANO BEACH  MOSUNNY  N/A N/A N/A E14       30.06F
PEMBROKE PINES PTSUNNY   87  73  62 E10       30.07F
OPA LOCKA      PTSUNNY   88  72  58 SE8       30.06F
MIAMI          PTSUNNY   90  72  55 SE13      30.06F HX  96
WEST KENDALL   MOSUNNY   91  71  51 SE12G21   30.05F HX  97
HOMESTEAD      SUNNY     89  72  58 E8        30.05F HX  95

STATION/POSITION SKY/WX   TEMP    WIND        PRES    WAVE   SWELL
                          AIR SEA DIR/SP/G            HT/PER HT/PER
                          (F)     (DEG/KT/KT) (MB)    (FT/S) (FT/S)
PORT EVERGLADES            87     130/  6/  9 1018.1
VIRGINIA KEY               85 87  110/  8/ 11   N/A
LAKE WORTH                 84 87   80/  8/ 11 1018.1F
FOWEY ROCKS                85 87  100/ 11/ 11 1018.1F
SETTLEMENT POINT           83     200/  4/  6 1019.0F

$$





U.S. Dept. of Commerce
NOAA National Weather Service
1325 East West Highway
Silver Spring, MD 20910
E-mail: w-nws.webmaster@noaa.gov
Page last modified: May 16, 2007
NATIONAL WEATHER SERVICE: for Safety, for Work, for Fun - FOR LIFE